,,,PA_Meas_PMT16A,,PR_Meas_QMR101_102,,RH_Meas_QMH101,,SR_Meas_QMS101,,TA_Meas_QMH101,,GenWind,,GenWind,
date,time,status,PA,status,PR,status,RH,status,SR,status,TA,status,DirAvg,status,SpdAvg,
2010-08-20, 00:00:04,VALID,1000.71,VALID,0,VALID,90.6475,VALID,0,VALID,23.5256,VALID,40,VALID,0.878516,
2010-08-20, 00:01:04,VALID,1000.7,VALID,0,VALID,90.617,VALID,0,VALID,23.5451,VALID,43,VALID,0.750781,
2010-08-20, 00:02:04,VALID,1000.65,VALID,0,VALID,90.6704,VALID,0,VALID,23.5451,VALID,45,VALID,1.10312,
2010-08-20, 00:03:04,VALID,1000.64,VALID,0,VALID,90.7543,VALID,0,VALID,23.5451,VALID,47,VALID,0.956641,
2010-08-20, 00:04:04,VALID,1000.66,VALID,0,VALID,90.6628,VALID,0,VALID,23.5646,VALID,47,VALID,0.939844,
2010-08-20, 00:05:04,VALID,1000.64,VALID,0,VALID,90.3194,VALID,0,VALID,23.5646,VALID,51,VALID,0.837891,
2010-08-20, 00:06:04,VALID,1000.6,VALID,0,VALID,89.938,VALID,0,VALID,23.5841,VALID,63,VALID,0.779688,
2010-08-20, 00:07:04,VALID,1000.59,VALID,0,VALID,89.8388,VALID,0,VALID,23.5841,VALID,65,VALID,0.664063,
2010-08-20, 00:08:04,VALID,1000.56,VALID,0,VALID,90.1134,VALID,0,VALID,23.6232,VALID,65,VALID,0.604297,
2010-08-20, 00:09:04,VALID,1000.53,VALID,0,VALID,90.266,VALID,0,VALID,23.6232,VALID,65,VALID,0.426953,
2010-08-20, 00:10:04,VALID,1000.53,VALID,0,VALID,90.3118,VALID,0,VALID,23.6427,VALID,65,VALID,0.161719,
2010-08-20, 00:11:04,VALID,1000.51,VALID,0,VALID,90.5102,VALID,0,VALID,23.6427,VALID,65,VALID,0.397656,
2010-08-20, 00:12:04,VALID,1000.48,VALID,0,VALID,90.5788,VALID,0,VALID,23.6232,VALID,65,VALID,0.590234,
2010-08-20, 00:13:04,VALID,1000.45,VALID,0,VALID,90.884,VALID,0,VALID,23.6427,VALID,51,VALID,0.741797,
2010-08-20, 00:14:04,VALID,1000.39,VALID,0,VALID,90.9451,VALID,0,VALID,23.6232,VALID,31,VALID,1.03516,
2010-08-20, 00:15:04,VALID,1000.37,VALID,0,VALID,91.0061,VALID,0,VALID,23.6036,VALID,23,VALID,1.18867,
2010-08-20, 00:16:04,VALID,1000.38,VALID,0,VALID,90.9146,VALID,0,VALID,23.5646,VALID,23,VALID,1.18242,
2010-08-20, 00:17:04,VALID,1000.36,VALID,0,VALID,90.9832,VALID,0,VALID,23.5451,VALID,33,VALID,0.867969,
2010-08-20, 00:18:04,VALID,1000.35,VALID,0,VALID,90.9603,VALID,0.112286,VALID,23.4866,VALID,39,VALID,0.837891,
2010-08-20, 00:19:04,VALID,1000.31,VALID,0,VALID,90.9222,VALID,0,VALID,23.4263,VALID,44,VALID,1.16797,
2010-08-20, 00:20:04,VALID,1000.3,VALID,0,VALID,91.0061,VALID,0,VALID,23.4653,VALID,44,VALID,0.892187,
2010-08-20, 00:21:04,VALID,1000.24,VALID,0,VALID,90.9756,VALID,0,VALID,23.4458,VALID,43,VALID,0.631641,
2010-08-20, 00:22:04,VALID,1000.21,VALID,0,VALID,90.9909,VALID,0,VALID,23.4671,VALID,43,VALID,0.255078,
2010-08-20, 00:23:04,VALID,1000.19,VALID,0,VALID,91.1358,VALID,0,VALID,23.4671,VALID,43,VALID,0.270703,
2010-08-20, 00:24:04,VALID,1000.19,VALID,0,VALID,91.2579,VALID,0,VALID,23.4475,VALID,43,VALID,0.293359,
2010-08-20, 00:25:04,VALID,1000.17,VALID,0,VALID,91.2197,VALID,0,VALID,23.4475,VALID,43,VALID,0.419922,
2010-08-20, 00:26:04,VALID,1000.17,VALID,0,VALID,91.2197,VALID,0,VALID,23.4671,VALID,43,VALID,0.425391,
2010-08-20, 00:27:04,VALID,1000.17,VALID,0,VALID,91.09,VALID,0,VALID,23.4671,VALID,43,VALID,0.152344,
2010-08-20, 00:28:04,VALID,1000.17,VALID,0,VALID,91.0366,VALID,0,VALID,23.4866,VALID,43,VALID,0.242188,
2010-08-20, 00:29:04,VALID,1000.12,VALID,0,VALID,90.9222,VALID,0,VALID,23.4653,VALID,43,VALID,0.107422,
2010-08-20, 00:30:04,VALID,1000.13,VALID,0,VALID,90.9222,VALID,0,VALID,23.4866,VALID,43,VALID,0.009375,
2010-08-20, 00:31:04,VALID,1000.09,VALID,0,VALID,90.8917,VALID,0,VALID,23.5061,VALID,43,VALID,0.448047,
2010-08-20, 00:32:04,VALID,1000.04,VALID,0,VALID,90.8001,VALID,0,VALID,23.5256,VALID,18,VALID,0.792969,
2010-08-20, 00:33:04,VALID,1000.07,VALID,0,VALID,90.7467,VALID,0,VALID,23.5256,VALID,18,VALID,0.398438,
2010-08-20, 00:34:04,VALID,1000.09,VALID,0,VALID,90.7009,VALID,0,VALID,23.5256,VALID,18,VALID,0.00546875,
2010-08-20, 00:35:04,VALID,1000.07,VALID,0,VALID,90.6399,VALID,0,VALID,23.5061,VALID,18,VALID,0,
2010-08-20, 00:36:04,VALID,1000.06,VALID,0,VALID,90.8535,VALID,0,VALID,23.5061,VALID,18,VALID,0.413281,
2010-08-20, 00:37:04,VALID,1000.01,VALID,0,VALID,90.968,VALID,0,VALID,23.4653,VALID,18,VALID,0.651563,
2010-08-20, 00:38:04,VALID,1000,VALID,0,VALID,91.0595,VALID,0,VALID,23.4866,VALID,3,VALID,0.848828,
2010-08-20, 00:39:04,VALID,999.987,VALID,0,VALID,91.0748,VALID,0,VALID,23.5061,VALID,353,VALID,0.523438,
2010-08-20, 00:40:04,VALID,1000.02,VALID,0,VALID,91.0519,VALID,0,VALID,23.4866,VALID,353,VALID,0.0117188,
2010-08-20, 00:41:04,VALID,1000.02,VALID,0,VALID,91.0366,VALID,0,VALID,23.4671,VALID,353,VALID,0.359375,
2010-08-20, 00:42:04,VALID,1000.01,VALID,0,VALID,90.9909,VALID,0,VALID,23.428,VALID,353,VALID,0.341797,
2010-08-20, 00:43:04,VALID,999.979,VALID,0,VALID,91.1663,VALID,0,VALID,23.428,VALID,353,VALID,0.558203,
2010-08-20, 00:44:04,VALID,999.96,VALID,0,VALID,91.2579,VALID,0,VALID,23.4085,VALID,353,VALID,0.551562,
2010-08-20, 00:45:04,VALID,999.923,VALID,0,VALID,91.4028,VALID,0,VALID,23.428,VALID,346,VALID,0.577344,
2010-08-20, 00:46:04,VALID,999.971,VALID,0,VALID,91.5097,VALID,0,VALID,23.4067,VALID,344,VALID,0.172656,
2010-08-20, 00:47:04,VALID,999.988,VALID,0,VALID,91.5326,VALID,0,VALID,23.4067,VALID,344,VALID,0.382031,
2010-08-20, 00:48:04,VALID,999.992,VALID,0,VALID,91.502,VALID,0,VALID,23.4067,VALID,344,VALID,0,
2010-08-20, 00:49:04,VALID,999.952,VALID,0,VALID,91.4639,VALID,0,VALID,23.4085,VALID,344,VALID,0,
2010-08-20, 00:50:04,VALID,999.925,VALID,0,VALID,91.5249,VALID,0,VALID,23.3677,VALID,344,VALID,0,
2010-08-20, 00:51:04,VALID,999.9,VALID,0,VALID,91.5631,VALID,0,VALID,23.389,VALID,344,VALID,0,
2010-08-20, 00:52:04,VALID,999.893,VALID,0,VALID,91.6012,VALID,0,VALID,23.3677,VALID,344,VALID,0.435547,
2010-08-20, 00:53:04,VALID,999.879,VALID,0,VALID,91.6851,VALID,0,VALID,23.4085,VALID,344,VALID,0.372266,
2010-08-20, 00:54:04,VALID,999.873,VALID,0,VALID,91.6851,VALID,0,VALID,23.3872,VALID,344,VALID,0.162891,
2010-08-20, 00:55:04,VALID,999.857,VALID,0,VALID,91.6851,VALID,0,VALID,23.4085,VALID,344,VALID,0.439063,
2010-08-20, 00:56:04,VALID,999.887,VALID,0,VALID,91.6851,VALID,0,VALID,23.3872,VALID,344,VALID,0.528906,
2010-08-20, 00:57:04,VALID,999.864,VALID,0,VALID,91.6928,VALID,0,VALID,23.389,VALID,344,VALID,0.59375,
2010-08-20, 00:58:04,VALID,999.823,VALID,0,VALID,91.7004,VALID,0,VALID,23.3695,VALID,344,VALID,0.588281,
2010-08-20, 00:59:04,VALID,999.869,VALID,0,VALID,91.7462,VALID,0,VALID,23.3695,VALID,344,VALID,0.355078,
2010-08-20, 01:00:04,VALID,999.849,VALID,0,VALID,91.7767,VALID,0,VALID,23.35,VALID,344,VALID,0.319922,
2010-08-20, 01:01:04,VALID,999.844,VALID,0,VALID,91.8225,VALID,0,VALID,23.3695,VALID,344,VALID,0.449609,
2010-08-20, 01:02:04,VALID,999.835,VALID,0,VALID,91.853,VALID,0,VALID,23.3482,VALID,344,VALID,0.598437,
2010-08-20, 01:03:04,VALID,999.839,VALID,0,VALID,91.8225,VALID,0,VALID,23.3482,VALID,345,VALID,0.836719,
2010-08-20, 01:04:04,VALID,999.83,VALID,0,VALID,91.7691,VALID,0,VALID,23.3677,VALID,9,VALID,0.828516,
2010-08-20, 01:05:04,VALID,999.828,VALID,0,VALID,91.8072,VALID,0,VALID,23.3482,VALID,1,VALID,0.637891,
2010-08-20, 01:06:04,VALID,999.805,VALID,0,VALID,91.8606,VALID,0,VALID,23.3713,VALID,353,VALID,0.49375,
2010-08-20, 01:07:04,VALID,999.773,VALID,0,VALID,91.9293,VALID,0,VALID,23.3518,VALID,304,VALID,0.670313,
2010-08-20, 01:08:04,VALID,999.768,VALID,0,VALID,92.0056,VALID,0,VALID,23.3713,VALID,293,VALID,0.470703,
2010-08-20, 01:09:04,VALID,999.775,VALID,0,VALID,92.0514,VALID,0,VALID,23.3713,VALID,293,VALID,0.298438,
2010-08-20, 01:10:04,VALID,999.734,VALID,0,VALID,92.0285,VALID,0,VALID,23.3713,VALID,293,VALID,0.128906,
2010-08-20, 01:11:04,VALID,999.741,VALID,0,VALID,92.0514,VALID,0,VALID,23.3713,VALID,293,VALID,0.240234,
2010-08-20, 01:12:04,VALID,999.766,VALID,0,VALID,92.0819,VALID,0,VALID,23.3518,VALID,293,VALID,0.355469,
2010-08-20, 01:13:04,VALID,999.793,VALID,0,VALID,92.059,VALID,0,VALID,23.3305,VALID,293,VALID,0.376953,
2010-08-20, 01:14:04,VALID,999.825,VALID,0,VALID,92.0209,VALID,0,VALID,23.2915,VALID,293,VALID,0.489062,
2010-08-20, 01:15:04,VALID,999.826,VALID,0,VALID,92.0056,VALID,0,VALID,23.2932,VALID,293,VALID,0.510547,
2010-08-20, 01:16:04,VALID,999.883,VALID,0,VALID,92.0285,VALID,0,VALID,23.2932,VALID,293,VALID,0.359375,
2010-08-20, 01:17:04,VALID,999.887,VALID,0,VALID,92.0361,VALID,0,VALID,23.2524,VALID,293,VALID,0.201562,
2010-08-20, 01:18:04,VALID,999.896,VALID,0,VALID,92.0437,VALID,0,VALID,23.2737,VALID,293,VALID,0,
2010-08-20, 01:19:04,VALID,999.887,VALID,0,VALID,92.0514,VALID,0,VALID,23.2737,VALID,293,VALID,0,
2010-08-20, 01:20:04,VALID,999.867,VALID,0,VALID,92.1048,VALID,0,VALID,23.2542,VALID,293,VALID,0,
2010-08-20, 01:21:04,VALID,999.866,VALID,0,VALID,92.12,VALID,0,VALID,23.2312,VALID,293,VALID,0,
2010-08-20, 01:22:04,VALID,999.885,VALID,0,VALID,92.1963,VALID,0,VALID,23.2719,VALID,293,VALID,0,
2010-08-20, 01:23:04,VALID,999.833,VALID,0,VALID,92.2574,VALID,0,VALID,23.2915,VALID,293,VALID,0,
2010-08-20, 01:24:04,VALID,999.828,VALID,0,VALID,92.2726,VALID,0,VALID,23.2915,VALID,293,VALID,0,
2010-08-20, 01:25:04,VALID,999.802,VALID,0,VALID,92.2726,VALID,0,VALID,23.311,VALID,293,VALID,0,
2010-08-20, 01:26:04,VALID,999.814,VALID,0,VALID,92.2497,VALID,0,VALID,23.2897,VALID,293,VALID,0,
2010-08-20, 01:27:04,VALID,999.777,VALID,0,VALID,92.204,VALID,0,VALID,23.3305,VALID,293,VALID,0,
2010-08-20, 01:28:04,VALID,999.814,VALID,0,VALID,92.1582,VALID,0,VALID,23.3305,VALID,293,VALID,0,
2010-08-20, 01:29:04,VALID,999.827,VALID,0,VALID,92.0895,VALID,0,VALID,23.3092,VALID,293,VALID,0,
2010-08-20, 01:30:04,VALID,999.829,VALID,0,VALID,92.0743,VALID,0,VALID,23.2915,VALID,293,VALID,0,
2010-08-20, 01:31:04,VALID,999.816,VALID,0,VALID,92.0437,VALID,0,VALID,23.2915,VALID,293,VALID,0,
2010-08-20, 01:32:04,VALID,999.831,VALID,0,VALID,92.0285,VALID,0,VALID,23.2507,VALID,293,VALID,0,
2010-08-20, 01:33:04,VALID,999.841,VALID,0,VALID,92.0666,VALID,0,VALID,23.2524,VALID,293,VALID,0,
2010-08-20, 01:34:04,VALID,999.858,VALID,0,VALID,92.0514,VALID,0,VALID,23.2329,VALID,293,VALID,0,
2010-08-20, 01:35:04,VALID,999.88,VALID,0,VALID,92.0437,VALID,0,VALID,23.1939,VALID,293,VALID,0,
2010-08-20, 01:36:04,VALID,999.874,VALID,0,VALID,92.0666,VALID,0,VALID,23.1744,VALID,293,VALID,0,
2010-08-20, 01:37:04,VALID,999.861,VALID,0,VALID,92.1429,VALID,0,VALID,23.1744,VALID,293,VALID,0,
2010-08-20, 01:38:04,VALID,999.798,VALID,0,VALID,92.2421,VALID,0,VALID,23.1354,VALID,293,VALID,0,
2010-08-20, 01:39:04,VALID,999.773,VALID,0,VALID,92.3489,VALID,0,VALID,23.1336,VALID,293,VALID,0,
2010-08-20, 01:40:04,VALID,999.79,VALID,0,VALID,92.4786,VALID,0,VALID,23.1354,VALID,293,VALID,0,
2010-08-20, 01:41:04,VALID,999.781,VALID,0,VALID,92.5473,VALID,0,VALID,23.1549,VALID,293,VALID,0,
2010-08-20, 01:42:04,VALID,999.769,VALID,0,VALID,92.6236,VALID,0,VALID,23.1549,VALID,293,VALID,0,
2010-08-20, 01:43:04,VALID,999.734,VALID,0,VALID,92.6465,VALID,0,VALID,23.1336,VALID,293,VALID,0,
2010-08-20, 01:44:04,VALID,999.742,VALID,0,VALID,92.6388,VALID,0,VALID,23.1549,VALID,293,VALID,0,
2010-08-20, 01:45:04,VALID,999.657,VALID,0,VALID,92.6999,VALID,0,VALID,23.1354,VALID,293,VALID,0,
2010-08-20, 01:46:04,VALID,999.656,VALID,0,VALID,92.7304,VALID,0,VALID,23.1336,VALID,349,VALID,0,
2010-08-20, 01:47:04,VALID,999.686,VALID,0,VALID,92.7457,VALID,0,VALID,23.1336,VALID,355,VALID,0.996094,
2010-08-20, 01:48:04,VALID,999.655,VALID,0,VALID,92.5854,VALID,0,VALID,23.0556,VALID,356,VALID,0.708203,
2010-08-20, 01:49:04,VALID,999.697,VALID,0,VALID,92.4252,VALID,0,VALID,23.0361,VALID,356,VALID,0.293359,
2010-08-20, 01:50:04,VALID,999.751,VALID,0,VALID,92.326,VALID,0,VALID,22.9776,VALID,356,VALID,0,
2010-08-20, 01:51:04,VALID,999.763,VALID,0,VALID,92.2955,VALID,0,VALID,22.9581,VALID,356,VALID,0,
2010-08-20, 01:52:04,VALID,999.75,VALID,0,VALID,92.3031,VALID,0,VALID,22.9598,VALID,356,VALID,0,
2010-08-20, 01:53:04,VALID,999.779,VALID,0,VALID,92.4557,VALID,0,VALID,22.9581,VALID,14,VALID,0.113672,
2010-08-20, 01:54:04,VALID,999.774,VALID,0,VALID,92.6388,VALID,0,VALID,22.9988,VALID,42,VALID,0.853906,
2010-08-20, 01:55:04,VALID,999.749,VALID,0,VALID,92.7228,VALID,0,VALID,23.0378,VALID,46,VALID,0.929297,
2010-08-20, 01:56:04,VALID,999.743,VALID,0,VALID,92.7304,VALID,0,VALID,23.0166,VALID,49,VALID,0.945703,
2010-08-20, 01:57:04,VALID,999.766,VALID,0,VALID,92.7685,VALID,0,VALID,23.0361,VALID,49,VALID,1.00039,
2010-08-20, 01:58:04,VALID,999.762,VALID,0,VALID,92.7914,VALID,0,VALID,23.0751,VALID,49,VALID,0.617578,
2010-08-20, 01:59:04,VALID,999.778,VALID,0,VALID,92.7457,VALID,0,VALID,23.0769,VALID,49,VALID,0.349219,
2010-08-20, 02:00:04,VALID,999.769,VALID,0,VALID,92.7151,VALID,0,VALID,23.0166,VALID,49,VALID,0,
2010-08-20, 02:01:04,VALID,999.749,VALID,0,VALID,92.6312,VALID,0,VALID,23.0183,VALID,49,VALID,0,
2010-08-20, 02:02:04,VALID,999.742,VALID,0,VALID,92.5854,VALID,0,VALID,22.9988,VALID,49,VALID,0,
2010-08-20, 02:03:04,VALID,999.722,VALID,0,VALID,92.6007,VALID,0,VALID,22.9988,VALID,49,VALID,0,
2010-08-20, 02:04:04,VALID,999.735,VALID,0,VALID,92.6694,VALID,0,VALID,23.0183,VALID,49,VALID,0,
2010-08-20, 02:05:04,VALID,999.747,VALID,0,VALID,92.6694,VALID,0,VALID,22.9971,VALID,49,VALID,0,
2010-08-20, 02:06:04,VALID,999.725,VALID,0,VALID,92.6846,VALID,0,VALID,22.9793,VALID,49,VALID,0,
2010-08-20, 02:07:04,VALID,999.705,VALID,0,VALID,92.7457,VALID,0,VALID,23.0006,VALID,49,VALID,0,
2010-08-20, 02:08:04,VALID,999.72,VALID,0,VALID,92.7991,VALID,0,VALID,23.0201,VALID,49,VALID,0,
2010-08-20, 02:09:04,VALID,999.687,VALID,0,VALID,92.883,VALID,0,VALID,23.0183,VALID,49,VALID,0,
2010-08-20, 02:10:04,VALID,999.658,VALID,0,VALID,92.9364,VALID,0,VALID,23.0591,VALID,49,VALID,0,
2010-08-20, 02:11:04,VALID,999.677,VALID,0,VALID,92.9669,VALID,0,VALID,23.0786,VALID,49,VALID,0,
2010-08-20, 02:12:04,VALID,999.699,VALID,0,VALID,93.028,VALID,0,VALID,23.0573,VALID,49,VALID,0,
2010-08-20, 02:13:04,VALID,999.675,VALID,0,VALID,93.0127,VALID,0,VALID,23.0786,VALID,49,VALID,0,
2010-08-20, 02:14:04,VALID,999.682,VALID,0,VALID,93.028,VALID,0,VALID,23.0981,VALID,49,VALID,0,
2010-08-20, 02:15:04,VALID,999.662,VALID,0,VALID,92.9898,VALID,0,VALID,23.0786,VALID,49,VALID,0,
2010-08-20, 02:16:04,VALID,999.642,VALID,0,VALID,92.9898,VALID,0,VALID,23.0378,VALID,49,VALID,0,
2010-08-20, 02:17:04,VALID,999.623,VALID,0,VALID,92.9211,VALID,0,VALID,23.0183,VALID,49,VALID,0,
2010-08-20, 02:18:04,VALID,999.582,VALID,0,VALID,92.8448,VALID,0,VALID,22.9988,VALID,49,VALID,0,
2010-08-20, 02:19:04,VALID,999.614,VALID,0,VALID,92.7762,VALID,0,VALID,22.9988,VALID,49,VALID,0,
2010-08-20, 02:20:04,VALID,999.608,VALID,0,VALID,92.7609,VALID,0,VALID,22.9598,VALID,49,VALID,0,
2010-08-20, 02:21:04,VALID,999.576,VALID,0,VALID,92.7609,VALID,0,VALID,22.9385,VALID,49,VALID,0,
2010-08-20, 02:22:04,VALID,999.595,VALID,0,VALID,92.7762,VALID,0,VALID,22.9598,VALID,49,VALID,0,
2010-08-20, 02:23:04,VALID,999.58,VALID,0,VALID,92.8677,VALID,0,VALID,22.9793,VALID,49,VALID,0,
2010-08-20, 02:24:04,VALID,999.561,VALID,0,VALID,92.9364,VALID,0,VALID,22.9988,VALID,49,VALID,0,
2010-08-20, 02:25:04,VALID,999.56,VALID,0,VALID,92.9898,VALID,0,VALID,23.0166,VALID,49,VALID,0,
2010-08-20, 02:26:04,VALID,999.539,VALID,0,VALID,93.0127,VALID,0,VALID,23.0183,VALID,49,VALID,0,
2010-08-20, 02:27:04,VALID,999.532,VALID,0,VALID,93.0127,VALID,0,VALID,22.9776,VALID,49,VALID,0,
2010-08-20, 02:28:04,VALID,999.5,VALID,0,VALID,93.0508,VALID,0,VALID,22.9971,VALID,49,VALID,0,
2010-08-20, 02:29:04,VALID,999.539,VALID,0,VALID,93.0508,VALID,0,VALID,22.9988,VALID,49,VALID,0,
2010-08-20, 02:30:04,VALID,999.507,VALID,0,VALID,93.0585,VALID,0,VALID,22.9988,VALID,49,VALID,0,
2010-08-20, 02:31:04,VALID,999.544,VALID,0,VALID,93.0661,VALID,0,VALID,22.9988,VALID,52,VALID,0,
2010-08-20, 02:32:04,VALID,999.549,VALID,0,VALID,93.0661,VALID,0,VALID,23.0183,VALID,73,VALID,0,
2010-08-20, 02:33:04,VALID,999.521,VALID,0,VALID,93.0661,VALID,0,VALID,23.0573,VALID,73,VALID,0,
2010-08-20, 02:34:04,VALID,999.502,VALID,0,VALID,92.9745,VALID,0,VALID,23.0556,VALID,73,VALID,0,
2010-08-20, 02:35:04,VALID,999.493,VALID,0,VALID,92.8525,VALID,0,VALID,23.0751,VALID,73,VALID,0,
2010-08-20, 02:36:04,VALID,999.453,VALID,0,VALID,92.7228,VALID,0,VALID,23.1159,VALID,73,VALID,0,
2010-08-20, 02:37:04,VALID,999.44,VALID,0,VALID,92.5626,VALID,0,VALID,23.1762,VALID,89,VALID,0,
2010-08-20, 02:38:04,VALID,999.448,VALID,0,VALID,92.3337,VALID,0,VALID,23.2134,VALID,89,VALID,0,
2010-08-20, 02:39:04,VALID,999.446,VALID,0,VALID,92.0285,VALID,0,VALID,23.2737,VALID,89,VALID,0,
2010-08-20, 02:40:04,VALID,999.456,VALID,0,VALID,91.6394,VALID,0,VALID,23.2915,VALID,89,VALID,0,
2010-08-20, 02:41:04,VALID,999.438,VALID,0,VALID,91.1816,VALID,0,VALID,23.2915,VALID,89,VALID,0,
2010-08-20, 02:42:04,VALID,999.461,VALID,0,VALID,91.0595,VALID,0,VALID,23.2719,VALID,89,VALID,0,
2010-08-20, 02:43:04,VALID,999.445,VALID,0,VALID,91.0977,VALID,0,VALID,23.2932,VALID,87,VALID,0,
2010-08-20, 02:44:04,VALID,999.458,VALID,0,VALID,91.2426,VALID,0,VALID,23.2932,VALID,87,VALID,0,
2010-08-20, 02:45:04,VALID,999.415,VALID,0,VALID,91.0748,VALID,0,VALID,23.2737,VALID,78,VALID,0,
2010-08-20, 02:46:04,VALID,999.418,VALID,0,VALID,90.8077,VALID,0,VALID,23.1762,VALID,67,VALID,1.15977,
2010-08-20, 02:47:04,VALID,999.412,VALID,0,VALID,90.9756,VALID,0,VALID,23.0964,VALID,56,VALID,1.18281,
2010-08-20, 02:48:04,VALID,999.437,VALID,0,VALID,91.1358,VALID,0,VALID,23.0591,VALID,56,VALID,1.02344,
2010-08-20, 02:49:04,VALID,999.459,VALID,0,VALID,91.3189,VALID,0,VALID,23.0006,VALID,56,VALID,0.765625,
2010-08-20, 02:50:04,VALID,999.451,VALID,0,VALID,91.4028,VALID,0,VALID,22.9615,VALID,56,VALID,0.240625,
2010-08-20, 02:51:04,VALID,999.413,VALID,0,VALID,91.4028,VALID,0,VALID,22.9208,VALID,56,VALID,0.345313,
2010-08-20, 02:52:04,VALID,999.432,VALID,0,VALID,91.5402,VALID,0,VALID,22.88,VALID,56,VALID,0.133203,
2010-08-20, 02:53:04,VALID,999.394,VALID,0,VALID,91.7843,VALID,0,VALID,22.8818,VALID,56,VALID,0.413281,
2010-08-20, 02:54:04,VALID,999.371,VALID,0,VALID,92.059,VALID,0,VALID,22.88,VALID,56,VALID,0.552734,
2010-08-20, 02:55:04,VALID,999.38,VALID,0,VALID,92.2268,VALID,0,VALID,22.9013,VALID,55,VALID,0.587891,
2010-08-20, 02:56:04,VALID,999.374,VALID,0,VALID,92.3871,VALID,0,VALID,22.8605,VALID,36,VALID,0.848437,
2010-08-20, 02:57:04,VALID,999.354,VALID,0,VALID,92.4939,VALID,0,VALID,22.8623,VALID,36,VALID,0.935547,
2010-08-20, 02:58:04,VALID,999.398,VALID,0,VALID,92.4786,VALID,0,VALID,22.802,VALID,37,VALID,0.853516,
2010-08-20, 02:59:04,VALID,999.392,VALID,0,VALID,92.5702,VALID,0,VALID,22.8232,VALID,37,VALID,1.0293,
2010-08-20, 03:00:04,VALID,999.379,VALID,0,VALID,92.6083,VALID,0,VALID,22.7842,VALID,37,VALID,1.08984,
2010-08-20, 03:01:04,VALID,999.388,VALID,0,VALID,92.5626,VALID,0,VALID,22.724,VALID,35,VALID,0.853906,
2010-08-20, 03:02:04,VALID,999.374,VALID,0,VALID,92.5626,VALID,0,VALID,22.6867,VALID,23,VALID,0.766406,
2010-08-20, 03:03:04,VALID,999.378,VALID,0,VALID,92.6465,VALID,0,VALID,22.685,VALID,344,VALID,0.820313,
2010-08-20, 03:04:04,VALID,999.368,VALID,0,VALID,92.7533,VALID,0,VALID,22.7452,VALID,293,VALID,0.625391,
2010-08-20, 03:05:04,VALID,999.408,VALID,0,VALID,92.8677,VALID,0,VALID,22.7647,VALID,293,VALID,0.440625,
2010-08-20, 03:06:04,VALID,999.41,VALID,0,VALID,92.9288,VALID,0,VALID,22.763,VALID,293,VALID,0.0328125,
2010-08-20, 03:07:04,VALID,999.431,VALID,0,VALID,92.9745,VALID,0,VALID,22.7435,VALID,293,VALID,0,
2010-08-20, 03:08:04,VALID,999.421,VALID,0,VALID,92.9898,VALID,0,VALID,22.7435,VALID,293,VALID,0,
2010-08-20, 03:09:04,VALID,999.4,VALID,0,VALID,93.028,VALID,0,VALID,22.763,VALID,293,VALID,0,
2010-08-20, 03:10:04,VALID,999.399,VALID,0,VALID,93.0585,VALID,0,VALID,22.763,VALID,293,VALID,0.58125,
2010-08-20, 03:11:04,VALID,999.372,VALID,0,VALID,93.0508,VALID,0,VALID,22.763,VALID,320,VALID,0.546875,
2010-08-20, 03:12:04,VALID,999.378,VALID,0,VALID,93.0127,VALID,0,VALID,22.7452,VALID,320,VALID,0,
2010-08-20, 03:13:04,VALID,999.385,VALID,0,VALID,92.9211,VALID,0,VALID,22.685,VALID,320,VALID,0,
2010-08-20, 03:14:04,VALID,999.385,VALID,0,VALID,92.8601,VALID,0,VALID,22.6867,VALID,320,VALID,0,
2010-08-20, 03:15:04,VALID,999.361,VALID,0,VALID,92.883,VALID,0,VALID,22.685,VALID,320,VALID,0.217969,
2010-08-20, 03:16:04,VALID,999.345,VALID,0,VALID,92.9135,VALID,0,VALID,22.7452,VALID,320,VALID,0.492969,
2010-08-20, 03:17:04,VALID,999.325,VALID,0,VALID,92.9364,VALID,0,VALID,22.7647,VALID,294,VALID,0.553516,
2010-08-20, 03:18:04,VALID,999.281,VALID,0,VALID,92.9669,VALID,0,VALID,22.8037,VALID,294,VALID,0.45,
2010-08-20, 03:19:04,VALID,999.294,VALID,0,VALID,92.9822,VALID,0,VALID,22.8037,VALID,294,VALID,0.502734,
2010-08-20, 03:20:04,VALID,999.298,VALID,0,VALID,92.9898,VALID,0,VALID,22.8232,VALID,298,VALID,0.560156,
2010-08-20, 03:21:04,VALID,999.286,VALID,0,VALID,92.944,VALID,0.112286,VALID,22.7825,VALID,330,VALID,0.654297,
2010-08-20, 03:22:04,VALID,999.291,VALID,0,VALID,92.9211,VALID,0,VALID,22.7825,VALID,332,VALID,0.710547,
2010-08-20, 03:23:04,VALID,999.291,VALID,0,VALID,92.8448,VALID,0.112286,VALID,22.7647,VALID,332,VALID,0.626172,
2010-08-20, 03:24:04,VALID,999.308,VALID,0,VALID,92.6312,VALID,0.112286,VALID,22.685,VALID,27,VALID,0.728516,
2010-08-20, 03:25:04,VALID,999.271,VALID,0,VALID,92.5626,VALID,0.112286,VALID,22.646,VALID,27,VALID,0.720312,
2010-08-20, 03:26:04,VALID,999.302,VALID,0,VALID,92.6236,VALID,0.112286,VALID,22.6672,VALID,27,VALID,0.838281,
2010-08-20, 03:27:04,VALID,999.264,VALID,0,VALID,92.7457,VALID,0.112286,VALID,22.6655,VALID,27,VALID,0.748438,
2010-08-20, 03:28:04,VALID,999.265,VALID,0,VALID,92.7991,VALID,0,VALID,22.6672,VALID,13,VALID,0.574609,
2010-08-20, 03:29:04,VALID,999.274,VALID,0,VALID,92.7991,VALID,0.112286,VALID,22.6264,VALID,7,VALID,0.294531,
2010-08-20, 03:30:04,VALID,999.246,VALID,0,VALID,92.8372,VALID,0,VALID,22.6477,VALID,7,VALID,0,
2010-08-20, 03:31:04,VALID,999.239,VALID,0,VALID,92.8983,VALID,0,VALID,22.6264,VALID,38,VALID,0.469141,
2010-08-20, 03:32:04,VALID,999.225,VALID,0,VALID,92.9517,VALID,0.112286,VALID,22.646,VALID,63,VALID,1.00352,
2010-08-20, 03:33:04,VALID,999.242,VALID,0,VALID,92.8983,VALID,0,VALID,22.6069,VALID,72,VALID,1.11797,
2010-08-20, 03:34:04,VALID,999.228,VALID,0,VALID,92.8448,VALID,0.112286,VALID,22.5679,VALID,64,VALID,0.852734,
2010-08-20, 03:35:04,VALID,999.212,VALID,0,VALID,92.822,VALID,0,VALID,22.5484,VALID,55,VALID,0.802734,
2010-08-20, 03:36:04,VALID,999.229,VALID,0,VALID,92.822,VALID,0,VALID,22.5289,VALID,55,VALID,0.383594,
2010-08-20, 03:37:04,VALID,999.203,VALID,0,VALID,92.8067,VALID,0,VALID,22.5111,VALID,55,VALID,0.453516,
2010-08-20, 03:38:04,VALID,999.253,VALID,0,VALID,92.7762,VALID,0,VALID,22.4509,VALID,55,VALID,0.0121094,
2010-08-20, 03:39:04,VALID,999.225,VALID,0,VALID,92.7228,VALID,0.112286,VALID,22.4119,VALID,55,VALID,0,
2010-08-20, 03:40:04,VALID,999.278,VALID,0,VALID,92.7151,VALID,0,VALID,22.3729,VALID,51,VALID,0.266406,
2010-08-20, 03:41:04,VALID,999.308,VALID,0,VALID,92.8143,VALID,0,VALID,22.3924,VALID,40,VALID,0.465625,
2010-08-20, 03:42:04,VALID,999.315,VALID,0,VALID,92.883,VALID,0,VALID,22.3729,VALID,40,VALID,0.471484,
2010-08-20, 03:43:04,VALID,999.354,VALID,0,VALID,92.9593,VALID,0,VALID,22.3941,VALID,40,VALID,0.488281,
2010-08-20, 03:44:04,VALID,999.362,VALID,0,VALID,93.0127,VALID,0,VALID,22.3924,VALID,40,VALID,0.757422,
2010-08-20, 03:45:04,VALID,999.394,VALID,0,VALID,93.0661,VALID,0,VALID,22.3924,VALID,40,VALID,0.633203,
2010-08-20, 03:46:04,VALID,999.404,VALID,0,VALID,93.0966,VALID,0,VALID,22.3729,VALID,40,VALID,0.508594,
2010-08-20, 03:47:04,VALID,999.404,VALID,0,VALID,93.1271,VALID,0,VALID,22.3729,VALID,40,VALID,0.64375,
2010-08-20, 03:48:04,VALID,999.452,VALID,0,VALID,93.1424,VALID,0,VALID,22.3746,VALID,40,VALID,0.477344,
2010-08-20, 03:49:04,VALID,999.408,VALID,0,VALID,93.1424,VALID,0.112286,VALID,22.3729,VALID,38,VALID,0.610547,
2010-08-20, 03:50:04,VALID,999.435,VALID,0,VALID,93.1653,VALID,0,VALID,22.3534,VALID,38,VALID,0.312109,
2010-08-20, 03:51:04,VALID,999.454,VALID,0,VALID,93.2034,VALID,0,VALID,22.3551,VALID,38,VALID,0,